CW1492 Weather Reports


time (UTC)temp
C
wind
direction
speed
KPH
gust
KPH
rain 1hr
cm
rain 24hr
cm
rain mn
cm
humidity
%
barometer
mb
20260507010348 12 337 6.4 14.5 0.10 1.09 1.09 80 1007.9
20260507010336 12 348 3.2 8.0 0.10 0.86 0.86 94 1006.2
20260507004857 13 311 0.0 3.2 0.10 0.84 0.84 96 1005.8
20260507004828 13 280 3.2 17.7 0.20 1.09 1.09 80 1007.6
20260507003353 13 315 4.8 11.3 0.25 1.07 1.07 88 1007.5
20260507003316 13 303 1.6 4.8 0.08 0.81 0.81 96 1005.7
20260507001858 13 316 1.6 14.5 0.28 1.04 1.04 88 1007.2
20260507001817 14 348 4.8 12.9 0.08 0.79 0.79 95 1005.3
20260507000350 14 253 1.6 4.8 0.23 0.99 0.99 88 1006.5
20260507000321 14 282 1.6 11.3 0.05 0.76 0.76 97 1004.8
20260506234904 14 281 3.2 9.7 0.03 0.74 0.74 97 1004.5
20260506234832 14 201 3.2 11.3 0.13 0.89 0.89 88 1006.3
20260506233341 14 283 1.6 11.3 0.08 0.81 0.81 88 1005.9
20260506233323 14 36 1.6 8.0 0.05 0.74 0.74 97 1004.3
20260506231900 14 141 4.8 16.1 0.03 0.76 0.76 88 1005.6
20260506231821 14 132 1.6 6.4 0.03 0.71 0.71 96 1004.2
20260506230410 14 141 6.4 16.1 0.05 0.76 0.76 88 1005.6
20260506230343 14 148 1.6 8.0 0.05 0.71 0.71 96 1004.2
20260506224827 14 127 6.4 19.3 0.08 0.76 0.76 88 1005.7
20260506224819 14 254 1.6 6.4 0.05 0.71 0.71 96 1004.3
20260506223421 14 116 8.0 17.7 0.05 0.74 0.74 87 1005.8
20260506223342 14 277 3.2 8.0 0.03 0.69 0.69 96 1004.3
20260506221906 14 98 1.6 8.0 0.03 0.69 0.69 96 1004.3
20260506221841 14 109 6.4 17.7 0.05 0.74 0.74 87 1005.8
20260506220412 14 122 4.8 25.7 0.05 0.71 0.71 87 1005.9
20260506220344 14 46 3.2 11.3 0.00 0.66 0.66 96 1004.4
20260506214900 14 135 6.4 20.9 0.03 0.69 0.69 86 1005.7
20260506214850 14 297 1.6 6.4 0.00 0.66 0.66 95 1004.4
20260506213413 15 120 1.6 11.3 0.03 0.66 0.66 95 1004.4
20260506213349 14 174 4.8 20.9 0.03 0.69 0.69 86 1005.8
20260506211830 14 150 11.3 25.7 0.03 0.69 0.69 85 1005.6
20260506211821 15 47 4.8 19.3 0.03 0.66 0.66 95 1004.4
20260506210400 14 127 11.3 22.5 0.03 0.66 0.66 85 1005.7
20260506210349 15 117 3.2 16.1 0.05 0.66 0.66 95 1004.4
20260506204905 15 142 8.0 22.5 0.03 0.66 0.66 85 1005.7
20260506204845 15 199 8.0 16.1 0.08 0.66 0.66 95 1004.4
20260506203416 15 103 9.7 29.0 0.05 0.66 0.66 85 1005.8
20260506203343 15 117 4.8 30.6 0.10 0.64 0.64 95 1004.6
20260506201954 15 73 11.3 20.9 0.10 0.66 0.66 85 1005.9
20260506201905 15 157 11.3 22.5 0.15 0.64 0.64 95 1004.7
20260506200333 15 128 6.4 24.1 0.18 0.64 0.64 85 1006.0
20260506200324 15 30 6.4 19.3 0.18 0.61 0.61 95 1004.6
20260506194858 15 104 6.4 27.4 0.23 0.64 0.64 85 1006.1
20260506194845 15 274 8.0 17.7 0.18 0.58 0.58 95 1004.9
20260506193350 15 88 6.4 17.7 0.15 0.53 0.53 95 1004.9
20260506193348 15 100 8.0 27.4 0.23 0.61 0.61 85 1006.3
20260506191918 15 105 9.7 27.4 0.23 0.56 0.56 85 1006.3
20260506191820 15 191 4.8 20.9 0.15 0.48 0.48 95 1005.1
20260506190426 15 135 11.3 24.1 0.18 0.46 0.46 84 1006.5
20260506190407 15 140 4.8 17.7 0.15 0.43 0.43 95 1005.2
20260506184908 15 120 9.7 25.7 0.18 0.41 0.41 84 1006.6
20260506184820 15 153 8.0 19.3 0.18 0.41 0.41 95 1005.2
20260506183449 15 200 4.8 16.1 0.20 0.38 0.38 84 1006.6
20260506183321 15 128 11.3 17.7 0.20 0.38 0.38 95 1005.2
20260506181946 15 99 6.4 19.3 0.20 0.33 0.33 82 1006.8
20260506181837 15 157 11.3 17.7 0.20 0.33 0.33 94 1005.5
20260506180335 15 138 6.4 14.5 0.20 0.28 0.28 94 1005.9
20260506180327 15 101 8.0 19.3 0.18 0.28 0.28 81 1007.2
20260506174858 15 117 3.2 6.4 0.20 0.23 0.23 94 1006.2
20260506174843 15 120 3.2 14.5 0.18 0.23 0.23 79 1007.7
20260506173435 15 108 1.6 9.7 0.15 0.18 0.18 78 1008.0
20260506173400 15 142 3.2 6.4 0.18 0.18 0.18 93 1006.5
20260506171904 15 132 3.2 4.8 0.13 0.13 0.13 92 1006.7
20260506171831 15 152 1.6 12.9 0.13 0.13 0.13 75 1008.2
20260506170342 15 182 3.2 11.3 0.10 0.10 0.10 74 1008.4
20260506170321 16 143 1.6 6.4 0.08 0.08 0.08 91 1006.9
20260506164848 15 156 0.0 12.9 0.05 0.05 0.05 72 1008.3
20260506164838 16 78 0.0 3.2 0.03 0.03 0.03 91 1006.8
20260506163414 16 155 1.6 11.3 0.00 0.00 0.00 70 1008.3
20260506163356 16 106 1.6 8.0 0.00 0.00 0.00 89 1006.8
20260506163314 16 106 1.6 8.0 0.00 0.00 0.00 89 1006.8
20260506161834 16 142 3.2 11.3 0.00 0.00 0.00 68 1008.5
20260506161832 16 71 3.2 12.9 0.00 0.00 0.00 88 1006.9
20260506160401 16 167 3.2 14.5 0.00 0.00 0.00 67 1008.5
20260506160353 16 193 4.8 12.9 0.00 0.00 0.00 86 1007.0
20260506154848 16 208 3.2 11.3 0.00 0.00 0.00 86 1007.3
20260506154844 16 164 3.2 14.5 0.00 0.00 0.00 66 1008.9
20260506153352 16 160 6.4 14.5 0.00 0.00 0.00 86 1007.6
20260506153337 16 224 4.8 14.5 0.00 0.00 0.00 66 1009.2
20260506151825 16 166 6.4 19.3 0.00 0.00 0.00 64 1009.3
20260506150409 16 148 3.2 11.3 0.00 0.00 0.00 84 1007.8
20260506150355 16 114 8.0 17.7 0.00 0.00 0.00 65 1009.6
20260506144849 16 275 3.2 8.0 0.00 0.00 0.00 84 1008.0
20260506144836 16 132 3.2 12.9 0.00 0.00 0.00 65 1009.7
20260506143342 16 160 3.2 14.5 0.00 0.00 0.00 65 1009.6
20260506143329 16 175 4.8 12.9 0.00 0.00 0.00 84 1007.9
20260506141842 16 191 3.2 9.7 0.00 0.00 0.00 65 1009.3
20260506141828 16 157 3.2 11.3 0.00 0.00 0.00 84 1007.5
20260506140437 16 199 1.6 11.3 0.00 0.00 0.00 84 1007.9
20260506140344 16 202 3.2 12.9 0.00 0.00 0.00 65 1009.6
20260506134853 15 96 1.6 8.0 0.00 0.00 0.00 65 1009.2
20260506134829 15 187 8.0 16.1 0.00 0.00 0.00 85 1007.6
20260506133334 15 249 3.2 11.3 0.00 0.00 0.00 67 1009.3
20260506133332 15 144 3.2 11.3 0.00 0.00 0.00 86 1007.6
20260506131902 15 141 4.8 17.7 0.00 0.00 0.00 68 1009.4
20260506131813 15 138 3.2 12.9 0.00 0.00 0.00 86 1007.7
20260506130346 14 164 4.8 14.5 0.00 0.00 0.00 68 1009.7
20260506130332 15 276 1.6 8.0 0.00 0.00 0.00 87 1008.1
20260506124847 14 101 3.2 14.5 0.00 0.00 0.00 68 1009.9
20260506124837 15 98 1.6 11.3 0.00 0.00 0.00 87 1008.3
20260506123404 14 145 3.2 14.5 0.00 0.00 0.00 88 1008.6
20260506123328 14 137 1.6 8.0 0.00 0.00 0.00 68 1010.0
20260506121844 14 143 6.4 17.7 0.00 0.00 0.00 89 1008.2
20260506121827 14 203 6.4 14.5 0.00 0.00 0.00 68 1009.8
20260506120337 14 177 3.2 16.1 0.00 0.00 0.00 68 1009.5
20260506120322 14 153 14.5 17.7 0.00 0.00 0.00 89 1007.8
20260506114903 14 179 6.4 12.9 0.00 0.00 0.00 68 1009.6
20260506114824 13 153 12.9 16.1 0.00 0.00 0.00 89 1008.1
20260506113344 13 151 6.4 14.5 0.00 0.00 0.00 89 1008.3
20260506113327 13 118 6.4 14.5 0.00 0.00 0.00 68 1009.6
20260506111842 13 157 9.7 14.5 0.00 0.00 0.00 89 1008.5
20260506111835 13 118 6.4 16.1 0.00 0.00 0.00 68 1009.8
20260506110338 13 108 3.2 8.0 0.00 0.00 0.00 68 1009.7
20260506110320 13 153 12.9 17.7 0.00 0.00 0.00 89 1008.4
20260506104902 13 150 14.5 19.3 0.00 0.00 0.00 89 1008.2
20260506104843 13 145 4.8 12.9 0.00 0.00 0.00 68 1009.6
20260506103347 13 178 8.0 20.9 0.00 0.00 0.00 68 1009.7
20260506103324 13 155 12.9 16.1 0.00 0.00 0.00 89 1008.3
20260506101853 13 153 11.3 17.7 0.00 0.00 0.00 88 1008.2
20260506101832 13 149 4.8 14.5 0.00 0.00 0.00 68 1009.6
20260506100333 13 157 9.7 17.7 0.00 0.00 0.00 87 1008.1
20260506100328 13 139 1.6 11.3 0.00 0.00 0.00 68 1009.5
20260506094921 13 111 3.2 12.9 0.00 0.00 0.00 67 1009.5
20260506094815 13 165 8.0 17.7 0.00 0.00 0.00 88 1008.0
20260506093334 12 112 1.6 12.9 0.00 0.00 0.00 88 1008.1
20260506093331 13 110 3.2 14.5 0.00 0.00 0.00 67 1009.7
20260506091854 12 355 0.0 3.2 0.00 0.00 0.00 88 1008.1
20260506091829 13 134 4.8 11.3 0.00 0.00 0.00 66 1009.5
20260506090335 13 119 3.2 12.9 0.00 0.00 0.00 65 1009.6
20260506084925 13 135 4.8 12.9 0.00 0.00 0.00 65 1009.6
20260506084814 12 42 0.0 1.6 0.00 0.00 0.00 88 1008.3
20260506083353 13 85 3.2 9.7 0.00 0.00 0.00 64 1009.8
20260506083331 12 5 0.0 1.6 0.00 0.00 0.00 87 1008.4
20260506081829 13 5 0.0 1.6 0.00 0.00 0.00 86 1008.3
20260506080415 13 79 3.2 9.7 0.00 0.00 0.00 63 1009.8
20260506080347 13 9 0.0 0.0 0.00 0.00 0.00 84 1008.5
20260506080332 13 79 3.2 9.7 0.00 0.00 0.00 63 1009.8
20260506073355 14 91 3.2 4.8 0.00 0.00 0.00 62 1009.9
20260506073339 15 244 0.0 3.2 0.00 0.00 0.00 80 1008.6
20260506071920 14 145 1.6 9.7 0.00 0.00 0.00 61 1010.0
20260506071845 15 211 0.0 3.2 0.00 0.00 0.00 79 1008.5
20260506070338 15 110 1.6 6.4 0.00 0.00 0.00 61 1010.1
20260506070316 15 251 0.0 3.2 0.00 0.00 0.00 78 1008.6
20260506061901 15 260 1.6 6.4 0.00 0.00 0.00 76 1008.4
20260506061854 15 88 3.2 9.7 0.00 0.00 0.00 59 1009.9
20260506060424 15 143 4.8 9.7 0.00 0.00 0.00 58 1010.0
20260506060321 16 284 1.6 3.2 0.00 0.00 0.00 75 1008.5
20260506050332 16 108 6.4 14.5 0.00 0.00 0.00 55 1010.1
20260506050322 16 155 0.0 6.4 0.00 0.00 0.00 72 1008.7
20260506044905 16 134 4.8 9.7 0.00 0.00 0.00 54 1010.2
20260506044820 16 188 0.0 4.8 0.00 0.00 0.00 71 1008.9
20260506043349 16 169 3.2 12.9 0.00 0.00 0.00 54 1010.2
20260506043321 17 265 3.2 6.4 0.00 0.00 0.00 71 1008.7
20260506041833 17 16 3.2 12.9 0.00 0.00 0.00 54 1010.1
20260506041830 17 172 3.2 8.0 0.00 0.00 0.00 71 1008.6
20260506040419 17 89 4.8 14.5 0.00 0.00 0.00 54 1010.2
20260506040313 17 173 1.6 6.4 0.00 0.00 0.00 70 1008.7
20260506034856 17 176 3.2 11.3 0.00 0.00 0.00 69 1008.7
20260506034831 17 99 8.0 14.5 0.00 0.00 0.00 53 1010.3
20260506033351 17 140 4.8 11.3 0.00 0.00 0.00 53 1010.1
20260506033335 18 121 3.2 6.4 0.00 0.00 0.00 69 1008.5
20260506031841 18 253 0.0 8.0 0.00 0.00 0.00 69 1008.5
20260506031826 18 264 4.8 8.0 0.00 0.00 0.00 53 1010.1
20260506030341 18 112 1.6 6.4 0.00 0.00 0.00 52 1010.1
20260506030316 18 298 0.0 4.8 0.00 0.00 0.00 69 1008.5
20260506024842 18 137 3.2 11.3 0.00 0.00 0.00 52 1009.9
20260506023349 18 100 3.2 9.7 0.00 0.00 0.00 54 1009.9
20260506023344 18 148 1.6 6.4 0.00 0.00 0.00 70 1008.4
20260506021851 18 127 4.8 12.9 0.00 0.00 0.00 54 1010.1
20260506021843 18 275 1.6 6.4 0.00 0.00 0.00 70 1008.6
20260506020354 18 178 3.2 9.7 0.00 0.00 0.00 52 1010.4
20260506020340 17 57 0.0 4.8 0.00 0.00 0.00 76 1008.6
20260506014924 19 156 4.8 14.5 0.00 0.00 0.00 52 1009.7
20260506014904 17 9 1.6 11.3 0.00 0.00 0.00 77 1008.2
20260506014821 17 9 1.6 11.3 0.00 0.00 0.00 77 1008.2
20260506013400 18 355 1.6 9.7 0.00 0.00 0.00 75 1008.3
20260506013327 19 108 6.4 9.7 0.00 0.00 0.00 52 1009.6
20260506011833 19 120 3.2 6.4 0.00 0.00 0.00 50 1009.6
20260506011821 18 151 0.0 3.2 0.00 0.00 0.00 72 1008.0